[[{"header":{"parameterUnit":"m.s-1","parameterCategory":1,"la1":30.2991,"la2":30.254,"lo1":-89.0895,"lo2":-89.0444,"dy":0.0017,"dx":0.0017,"nx":28,"ny":28,"refTime":"2025-09-11T09:00:00:Z","depth":0,"parameterNumber":2,"parameterNumberName":"U-component_of_WINDS"},"data":[0,0,0,0,0,0,0,0,0,0,0,0,0,0,0,0,0,0,0,0,0,0,0,0,0,0,0,0,0,0,0,0,0,0,0,0,0,0,0,0,0,0,0,0,0,0,0,0,0,0,0,0,0,0,0,0,0,0,-0.1912,-0.1912,0,-0.1948,-0.1949,-0.1949,-0.1961,-0.1961,-0.1961,-0.1961,-0.1997,-0.1998,-0.1999,0,0,0,0,0,0,0,0,0,0,0,0,0,-0.1852,-0.1853,-0.1912,-0.1912,-0.1913,-0.1948,-0.1949,-0.1949,-0.1962,-0.1961,-0.1961,-0.1961,-0.1997,-0.1998,-0.2,0,0,0,0,0,0,0,0,0,0,0,0,0,-0.1882,-0.1853,-0.1912,-0.1923,-0.1925,-0.1948,-0.1949,-0.1949,-0.1962,-0.1961,-0.1961,-0.1961,-0.1997,-0.1998,-0.2,-0.2014,0,0,-0.2005,-0.2006,0,0,0,0,0,0,0,0,-0.188,-0.1884,-0.1921,-0.1923,-0.1924,-0.195,-0.1941,-0.1971,-0.1962,-0.1948,-0.1961,-0.1961,-0.1982,-0.1985,-0.1992,-0.2016,-0.2017,-0.2005,-0.2006,-0.2007,-0.2007,0,0,0,0,0,0,0,-0.1878,-0.1883,-0.1926,-0.1922,-0.1924,-0.1926,-0.193,-0.1947,-0.1965,-0.1949,-0.195,-0.1954,-0.1983,-0.199,-0.1993,-0.2018,-0.2005,-0.2006,-0.2007,-0.2008,-0.2055,-0.2055,0,0,0,0,0,0,-0.1875,-0.1881,-0.1925,-0.1927,-0.1901,-0.1927,-0.1932,-0.1942,-0.1965,-0.1969,-0.1954,-0.1954,-0.1988,-0.1991,-0.1994,-0.2012,-0.2007,-0.2008,-0.2009,-0.2054,-0.2055,-0.2055,0,0,0,0,0,0,-0.1873,-0.1878,-0.1924,-0.1905,-0.1911,-0.1929,-0.194,-0.1943,-0.1951,-0.1969,-0.1973,-0.1959,-0.1987,-0.1992,-0.2009,-0.2014,-0.2009,-0.201,-0.2054,-0.2055,-0.2055,-0.2048,0,0,0,0,0,0,-0.1871,-0.1878,-0.1884,-0.1905,-0.1911,-0.1938,-0.194,-0.1944,-0.1954,-0.1954,-0.1974,-0.1978,-0.1988,-0.2006,-0.2011,-0.2016,-0.2012,-0.2054,-0.2054,-0.2055,-0.2048,-0.2048,-0.2049,0,0,0,0,0,-0.1869,-0.1881,-0.1884,-0.1889,-0.192,-0.1939,-0.1943,-0.1954,-0.1954,-0.196,-0.1972,-0.1977,-0.2012,-0.2008,-0.2013,-0.2019,-0.2054,-0.2054,-0.2055,-0.2048,-0.2048,-0.2049,0,0,0,0,0,0,-0.186,-0.1884,-0.1888,-0.1906,-0.192,-0.1941,-0.1949,-0.1954,-0.1969,-0.1969,-0.1982,-0.1987,-0.2003,-0.2012,-0.2007,-0.2033,-0.2033,-0.2035,-0.2026,-0.2027,-0.2027,-0.2024,-0.2013,0,0,0,0,0,-0.186,-0.1874,-0.1894,-0.1908,-0.1915,-0.1931,-0.1939,-0.1947,-0.1962,-0.1968,-0.1981,-0.1995,-0.201,-0.2019,-0.2033,-0.2049,-0.2054,-0.2056,-0.2056,-0.2056,-0.2057,-0.2066,-0.2067,-0.2057,-0.2057,-0.2057,0,0,-0.186,-0.1875,-0.1883,-0.1907,-0.1918,-0.1932,-0.1936,-0.195,-0.196,-0.197,-0.1987,-0.1997,-0.2014,-0.2031,-0.2039,-0.2039,-0.2061,-0.2057,-0.2057,-0.2058,-0.2067,-0.2067,-0.2068,-0.2057,-0.2057,-0.2057,0,0,-0.1868,-0.1881,-0.1894,-0.1905,-0.1923,-0.1934,-0.1936,-0.1956,-0.1963,-0.198,-0.1988,-0.2,-0.2024,-0.2036,-0.2045,-0.2055,-0.206,-0.2059,-0.2061,-0.2069,-0.207,-0.207,-0.2074,-0.2075,-0.2061,-0.2061,-0.2061,0,-0.1866,-0.1888,-0.19,-0.1914,-0.1924,-0.1933,-0.1946,-0.1957,-0.1978,-0.1985,-0.1985,-0.2015,-0.2027,-0.2046,-0.2049,-0.2056,-0.2059,-0.2057,-0.2069,-0.207,-0.207,-0.2074,-0.2075,-0.206,-0.206,-0.206,-0.206,0,-0.1884,-0.1899,-0.1907,-0.1928,-0.1938,-0.1952,-0.1965,-0.1975,-0.1981,-0.1991,-0.2008,-0.2022,-0.2039,-0.2044,-0.2051,-0.2064,-0.2064,-0.2066,-0.2066,-0.2071,-0.2074,-0.2076,-0.206,-0.206,-0.206,-0.206,0,0,-0.1888,-0.1914,-0.1917,-0.1926,-0.1946,-0.1957,-0.1971,-0.1987,-0.1995,-0.2009,-0.202,-0.204,-0.2042,-0.2052,-0.206,-0.2067,-0.2074,-0.2069,-0.2069,-0.2069,-0.2089,-0.2087,-0.2089,-0.2078,-0.2078,-0.2078,-0.2088,0,-0.1898,-0.1923,-0.1934,-0.1953,-0.1966,-0.1975,-0.1987,-0.2,-0.2009,-0.2021,-0.2031,-0.2045,-0.2047,-0.2053,-0.2061,-0.2072,-0.2078,-0.2071,-0.2088,-0.2088,-0.2083,-0.2091,-0.2089,-0.2097,-0.2089,-0.2089,-0.209,0,-0.1913,-0.1927,-0.1948,-0.1966,-0.1972,-0.1982,-0.1998,-0.201,-0.2024,-0.203,-0.2041,-0.2048,-0.2062,-0.2061,-0.208,-0.2074,-0.2082,-0.2088,-0.2089,-0.2091,-0.2089,-0.2093,-0.21,-0.2101,-0.2092,-0.2092,-0.2092,0,-0.1913,-0.1938,-0.1953,-0.1961,-0.1982,-0.1989,-0.1998,-0.2012,-0.2021,-0.2035,-0.2041,-0.2055,-0.2063,-0.2074,-0.2085,-0.2084,-0.2103,-0.2103,-0.2108,-0.2107,-0.2112,-0.2111,-0.212,-0.2116,-0.2116,-0.2116,-0.2116,0,-0.1924,-0.1936,-0.1953,-0.1963,-0.1977,-0.1989,-0.2002,-0.2012,-0.2024,-0.2035,-0.2044,-0.2054,-0.2067,-0.2079,-0.2087,-0.2101,-0.2105,-0.211,-0.2112,-0.2109,-0.2108,-0.2114,-0.2114,-0.2116,-0.2116,-0.2116,-0.2116,0,-0.1926,-0.1938,-0.1956,-0.1974,-0.1979,-0.1988,-0.2004,-0.2013,-0.2022,-0.2036,-0.204,-0.2055,-0.2069,-0.2081,-0.2099,-0.2104,-0.2119,-0.2121,-0.2114,-0.2115,-0.2119,-0.2119,-0.2133,-0.2135,-0.2129,-0.2129,-0.2129,0,-0.1932,-0.1942,-0.1961,-0.1969,-0.1978,-0.1991,-0.2,-0.2012,-0.2021,-0.2038,-0.2045,-0.206,-0.2072,-0.2094,-0.2106,-0.212,-0.2122,-0.2126,-0.2125,-0.2121,-0.2122,-0.2122,-0.2122,-0.2126,-0.2126,-0.2126,-0.2126,0,-0.1941,-0.1946,-0.1959,-0.1974,-0.1985,-0.1997,-0.201,-0.2016,-0.203,-0.204,-0.2054,-0.2064,-0.2082,-0.2096,-0.2111,-0.212,-0.2125,-0.2127,-0.2129,-0.2126,-0.2121,-0.2124,-0.2114,-0.2127,-0.2127,-0.2127,-0.2127,-0.2127,-0.1945,-0.1954,-0.1969,-0.1983,-0.1993,-0.2005,-0.2014,-0.2024,-0.2037,-0.2053,-0.2059,-0.2074,-0.2087,-0.2108,-0.2117,-0.2128,-0.2128,-0.2131,-0.2132,-0.2133,-0.2132,-0.2119,-0.2131,-0.2131,-0.2131,-0.2131,-0.2131,0,-0.1954,-0.1964,-0.1977,-0.1994,-0.2005,-0.2009,-0.2023,-0.2031,-0.2044,-0.2057,-0.2068,-0.2085,-0.2098,-0.2111,-0.2125,-0.2131,-0.2134,-0.2135,-0.2134,-0.2136,-0.2131,-0.2128,-0.2132,-0.2132,-0.2132,-0.2132,-0.2132,-0.2132,-0.196,-0.1975,-0.1982,-0.2002,-0.2012,-0.2026,-0.2034,-0.2044,-0.2054,-0.2072,-0.2083,-0.2091,-0.2103,-0.2118,-0.2131,-0.2134,-0.2139,-0.2138,-0.2142,-0.2137,-0.2137,-0.2136,-0.2134,-0.2139,-0.2139,-0.2147,-0.2147,-0.2147]},{"header":{"parameterUnit":"m.s-1","parameterCategory":1,"la1":30.2991,"la2":30.254,"lo1":-89.0895,"lo2":-89.0444,"dy":0.0017,"dx":0.0017,"nx":28,"ny":28,"refTime":"2025-09-11T09:00:00:Z","depth":0,"parameterNumber":3,"parameterNumberName":"V-component_of_WINDS"},"data":[0,0,0,0,0,0,0,0,0,0,0,0,0,0,0,0,0,0,0,0,0,0,0,0,0,0,0,0,0,0,0,0,0,0,0,0,0,0,0,0,0,0,0,0,0,0,0,0,0,0,0,0,0,0,0,0,0,0,-3.5844,-3.5844,0,-3.5886,-3.5886,-3.5887,-3.5859,-3.5858,-3.5856,-3.5855,-3.5895,-3.5897,-3.5899,0,0,0,0,0,0,0,0,0,0,0,0,0,-3.5734,-3.5736,-3.5844,-3.5844,-3.5845,-3.5886,-3.5886,-3.5887,-3.5859,-3.5858,-3.5856,-3.5855,-3.5894,-3.5897,-3.5899,0,0,0,0,0,0,0,0,0,0,0,0,0,-3.578,-3.5737,-3.5843,-3.5836,-3.5836,-3.5886,-3.5887,-3.5887,-3.5859,-3.5857,-3.5856,-3.5854,-3.5893,-3.5896,-3.59,-3.5959,0,0,-3.591,-3.5911,0,0,0,0,0,0,0,0,-3.5777,-3.5784,-3.5836,-3.5836,-3.5836,-3.5865,-3.5862,-3.5911,-3.586,-3.585,-3.5855,-3.5853,-3.5886,-3.589,-3.5902,-3.596,-3.5962,-3.591,-3.5912,-3.5914,-3.5915,0,0,0,0,0,0,0,-3.5774,-3.5782,-3.586,-3.5837,-3.5837,-3.5829,-3.5833,-3.5871,-3.5878,-3.5851,-3.5849,-3.5855,-3.5886,-3.5899,-3.5903,-3.5963,-3.591,-3.5913,-3.5915,-3.5916,-3.607,-3.6072,0,0,0,0,0,0,-3.5772,-3.5779,-3.5859,-3.5861,-3.5801,-3.5832,-3.5837,-3.5858,-3.5878,-3.5879,-3.5856,-3.5853,-3.5894,-3.5899,-3.5904,-3.5973,-3.5914,-3.5917,-3.5919,-3.6068,-3.6071,-3.6073,0,0,0,0,0,0,-3.577,-3.5779,-3.5857,-3.582,-3.5829,-3.5836,-3.586,-3.586,-3.5873,-3.5882,-3.5882,-3.5869,-3.5893,-3.5899,-3.5945,-3.5974,-3.5918,-3.5921,-3.6066,-3.6069,-3.6072,-3.6113,0,0,0,0,0,0,-3.5767,-3.5779,-3.5802,-3.5821,-3.5831,-3.5899,-3.5861,-3.5862,-3.5879,-3.5875,-3.5894,-3.5895,-3.5892,-3.594,-3.5949,-3.5978,-3.5924,-3.6063,-3.6067,-3.6071,-3.6109,-3.6117,-3.6124,0,0,0,0,0,-3.5763,-3.5811,-3.5804,-3.5813,-3.5861,-3.5901,-3.5907,-3.5903,-3.5882,-3.5904,-3.591,-3.5894,-3.597,-3.5945,-3.5954,-3.5985,-3.6061,-3.6066,-3.6071,-3.6105,-3.6115,-3.6124,0,0,0,0,0,0,-3.5795,-3.5814,-3.5805,-3.5861,-3.588,-3.5896,-3.5925,-3.5914,-3.5938,-3.5933,-3.5927,-3.5931,-3.5979,-3.5987,-3.5959,-3.6042,-3.6012,-3.6019,-3.6035,-3.6045,-3.6052,-3.6048,-3.5927,0,0,0,0,0,-3.5809,-3.5841,-3.5855,-3.5903,-3.5913,-3.5918,-3.5935,-3.5931,-3.5949,-3.5956,-3.5965,-3.5982,-3.601,-3.6028,-3.6054,-3.611,-3.6113,-3.6136,-3.6143,-3.6149,-3.6155,-3.6183,-3.6193,-3.6088,-3.6088,-3.6088,0,0,-3.5837,-3.5851,-3.5872,-3.591,-3.5924,-3.5955,-3.5924,-3.5959,-3.5982,-3.5961,-3.6005,-3.6012,-3.6031,-3.6082,-3.6105,-3.609,-3.6185,-3.6155,-3.616,-3.6162,-3.6189,-3.6199,-3.6208,-3.6092,-3.6091,-3.609,0,0,-3.5904,-3.5919,-3.596,-3.5975,-3.5997,-3.6,-3.601,-3.6028,-3.6032,-3.6077,-3.6061,-3.6088,-3.6136,-3.6149,-3.6163,-3.6236,-3.6221,-3.6244,-3.6283,-3.6311,-3.6319,-3.6326,-3.6351,-3.636,-3.625,-3.625,-3.625,0,-3.5936,-3.5985,-3.5983,-3.6019,-3.6035,-3.6019,-3.606,-3.6074,-3.6103,-3.6114,-3.6097,-3.6157,-3.6168,-3.6222,-3.6239,-3.6251,-3.6261,-3.6241,-3.6318,-3.6326,-3.6332,-3.6355,-3.6365,-3.6253,-3.6252,-3.6252,-3.6252,0,-3.6022,-3.6056,-3.6086,-3.6116,-3.6136,-3.6174,-3.6176,-3.6197,-3.6191,-3.6195,-3.624,-3.6254,-3.6281,-3.6294,-3.6289,-3.6347,-3.6336,-3.6319,-3.6288,-3.6345,-3.6366,-3.6375,-3.6256,-3.6255,-3.6255,-3.6254,0,0,-3.6109,-3.6138,-3.6148,-3.6161,-3.6184,-3.621,-3.6247,-3.6275,-3.6292,-3.6313,-3.6342,-3.6384,-3.6368,-3.6383,-3.6379,-3.6404,-3.6459,-3.6384,-3.6384,-3.6396,-3.6522,-3.6533,-3.6544,-3.6451,-3.6452,-3.6454,-3.652,0,-3.6177,-3.6243,-3.6242,-3.6302,-3.6332,-3.6318,-3.635,-3.6367,-3.6372,-3.6397,-3.6402,-3.6431,-3.6409,-3.6418,-3.6442,-3.6447,-3.6484,-3.6443,-3.6476,-3.6477,-3.647,-3.6555,-3.6567,-3.6629,-3.6528,-3.653,-3.6531,0,-3.6264,-3.6288,-3.6352,-3.637,-3.6383,-3.6412,-3.6437,-3.6463,-3.6481,-3.6483,-3.65,-3.6492,-3.6528,-3.6498,-3.6546,-3.6518,-3.6532,-3.6537,-3.6539,-3.654,-3.6506,-3.6557,-3.6648,-3.6657,-3.6544,-3.6543,-3.6542,0,-3.6318,-3.6367,-3.6412,-3.6423,-3.6446,-3.6466,-3.6477,-3.6493,-3.651,-3.6533,-3.6543,-3.6569,-3.6583,-3.6603,-3.6601,-3.658,-3.665,-3.662,-3.6651,-3.6651,-3.6664,-3.6663,-3.6758,-3.6677,-3.6677,-3.6677,-3.6676,0,-3.6392,-3.6431,-3.6436,-3.6463,-3.6506,-3.6505,-3.6547,-3.6555,-3.657,-3.6597,-3.6586,-3.6612,-3.6609,-3.6635,-3.6634,-3.6673,-3.668,-3.6681,-3.668,-3.6681,-3.6681,-3.6688,-3.6683,-3.6679,-3.6678,-3.6678,-3.6678,0,-3.646,-3.6465,-3.6512,-3.653,-3.6536,-3.6566,-3.6581,-3.6606,-3.6611,-3.6645,-3.6653,-3.6659,-3.6688,-3.669,-3.6723,-3.6723,-3.677,-3.6765,-3.6764,-3.6762,-3.6792,-3.6789,-3.6893,-3.6906,-3.6819,-3.682,-3.6821,0,-3.6506,-3.6536,-3.6557,-3.6575,-3.6587,-3.6616,-3.6634,-3.6634,-3.6652,-3.6675,-3.6697,-3.6726,-3.6748,-3.6795,-3.6802,-3.6827,-3.6821,-3.6857,-3.6825,-3.6825,-3.682,-3.6817,-3.6819,-3.6862,-3.6863,-3.6864,-3.6864,0,-3.6586,-3.6587,-3.6614,-3.6641,-3.6663,-3.6684,-3.6704,-3.6719,-3.6721,-3.6742,-3.6772,-3.679,-3.6825,-3.6852,-3.6877,-3.6886,-3.6875,-3.6875,-3.6883,-3.6883,-3.688,-3.688,-3.6779,-3.6871,-3.6871,-3.687,-3.687,-3.687,-3.6643,-3.6668,-3.6687,-3.6717,-3.6732,-3.6751,-3.6775,-3.6783,-3.6809,-3.6837,-3.6836,-3.6869,-3.6886,-3.6918,-3.6929,-3.6954,-3.6942,-3.6954,-3.6957,-3.6959,-3.6961,-3.6878,-3.6959,-3.6958,-3.6958,-3.6958,-3.6958,0,-3.672,-3.6732,-3.676,-3.6788,-3.6811,-3.6802,-3.6823,-3.6842,-3.6872,-3.6889,-3.6912,-3.6946,-3.6973,-3.6983,-3.7009,-3.7027,-3.7022,-3.7033,-3.7031,-3.7033,-3.6972,-3.6961,-3.7036,-3.7036,-3.7036,-3.7036,-3.7036,-3.7036,-3.6764,-3.6806,-3.6809,-3.6858,-3.687,-3.6903,-3.6916,-3.6932,-3.6946,-3.6986,-3.7008,-3.7015,-3.7029,-3.7056,-3.7079,-3.7081,-3.709,-3.7103,-3.7103,-3.7045,-3.7037,-3.7029,-3.7019,-3.7106,-3.7106,-3.7161,-3.7162,-3.7162]}]]